{"data":{"norad_id":59848,"intl_designator":"2024-097P","name":"STARLINK-31859","alt_names":[],"object_type":"PAYLOAD","status":"ACTIVE","operator":null,"country":"US","launch_date":"2024-05-23","launch_site_code":"AFETR","launch_vehicle":null,"mission":null,"orbit_class":"UNKNOWN","rcs_meters":null,"size_class":null,"mass_kg":null,"dimensions":null,"purposes":["comms"],"wikipedia_slug":null,"has_3d_model":false,"image_url":null,"decayed_at":null,"tle_current":{"epoch":"2026-05-25T04:07:48.339264Z","epoch_age_seconds":70546,"freshness":"FRESH","line1":"1 59848U 24097P   26145.17208726 -.00000528  00000+0 -96676-5 0  9992","line2":"2 59848  43.0004 195.5119 0001612 284.4293  75.6380 15.27577725113697","mean_motion":15.27577725,"eccentricity":0.0001612,"inclination_deg":43.0004,"raan_deg":195.5119,"arg_perigee_deg":284.4293,"mean_anomaly_deg":75.638,"bstar":-9.6676e-6,"rev_number":11369,"period_min":94.266889103793,"perigee_km":481.94988391973,"apogee_km":484.16193251334,"semimajor_km":6861.1929082165,"source":"CELESTRAK","updated_at":"2026-05-25T13:38:19.087924Z"}}}